User: anonymous
Location: Fort Wayne
(41.1310°N, 85.1290°W)
Time: 17:07:09
(UTC-04:00)
Language:

Cosmos 2219 Rocket - Orbit

View from above orbital plane
View from above orbital plane
View from above satellite
View from above satellite

Ground track
Ground track

The orbit data is extracted from the following two-line orbital elements,

1 22220U 92076B   14113.17057487  .00000045  00000-0  46833-4 0  2913
2 22220 071.0003 321.8762 0014430 233.1034 263.6050 14.16304018107792
Epoch (UTC): 23 April 2014 04:05:37
Eccentricity: 0.0014430
inclination: 71.0003°
perigee height: 827 km
apogee height: 848 km
right ascension of ascending node: 321.8762°
argument of perigee: 233.1034°
revolutions per day: 14.16304018
mean anomaly at epoch: 263.6050°
orbit number at epoch: 10779

The dashed part of the orbit path shows where the satellite is in the earth's shadow,  

DLR